GSAT0219 (GALILEO 23)

Last updated on Fri Oct 11 2024 00:02:28 GMT+0000 (Coordinated Universal Time)

1 43566U 18060C 24283.59105417 -.00000077 00000+0 00000+0 0 9993 2 43566 57.3018 358.3944 0004057 266.7820 93.2267 1.70476072 38692
UTC large
Height (km)
Speed (km/s)
/
Latitude / Longitude
Inclination (degrees)
Orbital Period (minutes)
Azimuth
Elevation
Range (km)
Doppler Factor

Next 0 passes for location: London (51.5072 / 0.1276)

Sorry there are no passes over London.